Погода в Лесопильном

Россия / Хабаровский край     46°44′23″N   134°20′00″E
темп.,
°C
ветер,
м/с
пор.,
м/с
влажн.,
%
обл.,
%
осадки,
мм/ч
давл.,
гПа
погр.,
м
22 апреля, чт
чт2201:00+8вюв11390 0.0 102210
04:00+6ююв22470 0.0 102212
07:00+6юв22490 0.0 102330
10:00+15юв24310 0.0 1023413
13:00+21ююв35230 0.0 1022881
16:00+23ю34193 0.0 10201429
19:00+21ю222719 0.0 101920
22:00+15ююз2238100 0.0 102116
23 апреля, пт
пт2301:00+12ю3545100 0.0 1022135
04:00+11ю41235100 0.0 1023383
07:00+10ю31038100 0.0 1023394
10:00+13ююз4736100 0.0 1023527
13:00+16юз3538100 0.0 1022780
16:00+20з6835100 0.0 10211500
19:00+15з51157100 0.0 1022743
22:00+12зсз2666100 0.2 1022351
24 апреля, сб
сб2401:00+11зсз3859100 0.0 1021592
04:00+9зсз4945100 0.0 1021769
07:00+7сз364580 0.0 1021822
10:00+9сз4530100 0.0 10211405
13:00+10ссз5627100 0.0 10201826
16:00+12сз57190 0.0 10182208
19:00+11сз38220 0.0 10171170
22:00+8сз613285 0.0 1018804
25 апреля, вс
вс2501:00+5зсз39370 0.0 1018230
04:00+3з234599 0.0 101646
07:00+5сз713400 0.0 10161565
10:00+6ссз711285 0.0 10172408
13:00+9ссз61023100 0.0 10173276
16:00+10ссз6102193 0.0 10173067
19:00+9ссз47200 0.0 10181360
22:00+4зюз11290 0.0 101910
26 апреля, пн
пн2601:00+3зюз11330 0.0 102010
04:00+1з11365 0.0 102010
07:00+2ююв113845 0.0 102030
10:00+10ююз232461 0.0 1019779
13:00+15ююз3520100 0.0 10161962
16:00+17ююз4621100 0.0 10132183
19:00+14ю3730100 0.0 1012241
22:00+10ююв3642100 0.0 1012137